, AK

(GMT )
Deadhorse

Weather History for PASC - October, 2012

Change the Weather History Date:

Wednesday, October 10, 2012

  Actual Average Record
Temperature  
Mean Temperature 26 °F -  
Max Temperature 30 °F 21 °F 50 °F (2006)
Min Temperature 19 °F 11 °F -14 °F (1991)
Degree Days  
Heating Degree Days 40    
Moisture  
Dew Point 24 °F    
Average Humidity 90    
Maximum Humidity 100    
Minimum Humidity 84    
Precipitation  
Precipitation 0.00 in - - ()
Sea Level Pressure  
Sea Level Pressure 30.55 in    
Wind  
Wind Speed 12 mph (WSW)    
Max Wind Speed 16 mph    
Max Gust Speed -    
Visibility 9 miles    
Events Snow    
Averages and records for this station are not official NWS values.
T = Trace of Precipitation, MM = Missing Value Source: NWS Daily Summary

Daily Weather History Graph

Daily Weather History Graph

Search for Another Location

Airport or City:

Trip Planner

Search our weather history database for the weather conditions in past years. The results will help you decide how hot, cold, wet, or windy it might be!

Date:

Astronomy

Oct. 10, 2012 Rise Set
Actual Time 8:49 AM AKDT 6:29 PM AKDT
Civil Twilight 7:47 AM AKDT 7:32 PM AKDT
Nautical Twilight 6:35 AM AKDT 8:43 PM AKDT
Astronomical Twilight 5:18 AM AKDT 9:59 PM AKDT
Moon 12:50 AM AKDT (10/10) 5:53 PM AKDT (10/10)
Length of Visible Light 11h 44m
Length of Day
9h 40m
Waning Crescent, 26% of the Moon is Illuminated
Oct 10
Waning Crescent
Oct 15
New
Oct 21
First Quarter
Oct 29
Full
Nov 6
Last Quarter

Hourly Weather History & Observations

Time (AKDT) Temp. Windchill Dew Point Humidity Pressure Visibility Wind Dir Wind Speed Gust Speed Precip Events Conditions
12:53 AM 28.9 °F 19.2 °F 28.0 °F 96% 30.62 in 2.5 mi WSW 11.5 mph - 0.00 in Snow Light Snow
1:22 AM 28.4 °F 16.6 °F 28.4 °F 100% 30.61 in 4.0 mi WSW 16.1 mph - 0.00 in Snow Light Snow
1:53 AM 30.0 °F 19.5 °F 28.0 °F 92% 30.62 in 9.0 mi WSW 13.8 mph - 0.00 in Snow Light Snow
2:53 AM 30.0 °F 20.0 °F 28.0 °F 92% 30.61 in 9.0 mi WSW 12.7 mph - 0.00 in   Overcast
3:53 AM 30.0 °F 20.5 °F 28.9 °F 96% 30.61 in 9.0 mi West 11.5 mph - 0.00 in Snow Light Snow
4:53 AM 28.9 °F 19.8 °F 28.0 °F 96% 30.61 in 4.0 mi West 10.4 mph - 0.00 in Snow Light Snow
5:53 AM 28.9 °F 19.2 °F 27.0 °F 92% 30.60 in 9.0 mi West 11.5 mph - 0.00 in Snow Light Snow
6:53 AM 28.0 °F 17.5 °F 26.1 °F 92% 30.60 in 8.0 mi West 12.7 mph - 0.00 in Snow Light Snow
7:53 AM 28.0 °F 18.1 °F 26.1 °F 92% 30.60 in 5.0 mi West 11.5 mph - 0.00 in Snow Light Snow
8:53 AM 28.0 °F 16.5 °F 24.1 °F 85% 30.59 in 7.0 mi West 15.0 mph - 0.00 in   Overcast
9:53 AM 24.1 °F 12.0 °F 19.9 °F 84% 30.59 in 9.0 mi West 13.8 mph - 0.00 in Snow Light Snow
10:53 AM 25.0 °F 13.6 °F 21.0 °F 85% 30.58 in 9.0 mi WSW 12.7 mph - 0.00 in   Mostly Cloudy
11:53 AM 25.0 °F 14.8 °F 21.9 °F 88% 30.58 in 10.0 mi WSW 10.4 mph - 0.00 in   Scattered Clouds
12:53 PM 28.9 °F 18.2 °F 26.1 °F 89% 30.58 in 9.0 mi WSW 13.8 mph - 0.00 in Snow Light Snow
1:25 PM 28.4 °F 17.5 °F 26.6 °F 93% 30.56 in 10.0 mi WSW 13.8 mph - 0.00 in   Overcast
1:34 PM 28.4 °F 18.5 °F 26.6 °F 93% 30.56 in 10.0 mi WSW 11.5 mph - 0.00 in   Mostly Cloudy
1:53 PM 28.9 °F 18.2 °F 26.1 °F 89% 30.56 in 7.0 mi West 13.8 mph - 0.00 in   Mostly Cloudy
2:53 PM 28.9 °F 18.2 °F 26.1 °F 89% 30.56 in 10.0 mi West 13.8 mph - N/A   Overcast
3:53 PM 28.9 °F 17.7 °F 26.1 °F 89% 30.55 in 10.0 mi West 15.0 mph - N/A   Overcast
4:53 PM 28.0 °F 18.1 °F 25.0 °F 88% 30.53 in 10.0 mi WSW 11.5 mph - N/A   Overcast
5:53 PM 23.0 °F 13.1 °F 21.0 °F 92% 30.52 in 10.0 mi SW 9.2 mph - N/A   Mostly Cloudy
6:50 PM 24.8 °F 16.1 °F 21.2 °F 86% 30.50 in 10.0 mi WSW 8.1 mph - N/A   Mostly Cloudy
6:53 PM 24.1 °F 14.4 °F 21.9 °F 91% 30.51 in 10.0 mi WSW 9.2 mph - N/A   Mostly Cloudy
7:14 PM 24.8 °F 16.1 °F 21.2 °F 86% 30.49 in 10.0 mi SW 8.1 mph - N/A   Overcast
7:53 PM 26.1 °F 16.2 °F 21.9 °F 84% 30.48 in 10.0 mi SW 10.4 mph - N/A   Mostly Cloudy
8:53 PM 24.1 °F 14.4 °F 21.0 °F 88% 30.45 in 10.0 mi WSW 9.2 mph - N/A   Scattered Clouds
9:53 PM 24.1 °F 13.7 °F 19.9 °F 84% 30.44 in 10.0 mi WSW 10.4 mph - N/A   Clear
10:53 PM 21.9 °F 12.5 °F 19.0 °F 89% 30.42 in 10.0 mi SW 8.1 mph - N/A   Mostly Cloudy
11:53 PM 19.9 °F 8.6 °F 18.0 °F 92% 30.40 in 10.0 mi SW 10.4 mph - N/A   Overcast